Location: Newark
(7.0858°N, 171.3717°E)
Time: 15:06:39
(UTC+00:00)

Courier 1B Rocket - Pass Details

Date: 01 December 2020
Orbit: 920 x 1202 km, 28.2° (Epoch: 20 January)

Event Time Altitude Azimuth Distance (km) Brightness Sun altitude
Rises 12:11:56 0° 218° (SW) 3,747 - -74.9°
Reaches altitude 10° 12:14:55 10° 208° (SSW) 2,841 - -75.0°
Maximum altitude 12:20:55 30° 148° (SSE) 1,824 - -75.2°
Drops below altitude 10° 12:27:16 10° 90° (E) 3,019 - -75.1°
Sets 12:30:31 0° 80° (E) 4,018 - -75.1°
